Belews Lake Weather Center

Moon Phase Calendar



Belews Lake Water Level
Online Cameras

 


      

Current Conditions in Stokesdale
10/22/2020 4:56:36 AM

59°F
Feels Like 61
Clear
Humidity
97%
Pressure
30.15"
Wind
0.5 mph (NNW)
Dew Point
58°F
UV Index
4/10 (Moderate)
Visibility
6 mi

Hourly Forecast

Date & Time Thu, Oct 22
4:00 AM
Thu, Oct 22
5:00 AM
Thu, Oct 22
6:00 AM
Thu, Oct 22
7:00 AM
Thu, Oct 22
8:00 AM
Thu, Oct 22
9:00 AM
Thu, Oct 22
10:00 AM
Thu, Oct 22
11:00 AM
Thu, Oct 22
12:00 PM
Thu, Oct 22
1:00 PM
Thu, Oct 22
2:00 PM
Thu, Oct 22
3:00 PM
Thu, Oct 22
4:00 PM
Thu, Oct 22
5:00 PM
Thu, Oct 22
6:00 PM
Thu, Oct 22
7:00 PM
Thu, Oct 22
8:00 PM
Thu, Oct 22
9:00 PM
Thu, Oct 22
10:00 PM
Thu, Oct 22
11:00 PM
Fri, Oct 23
12:00 AM
Fri, Oct 23
1:00 AM
Fri, Oct 23
2:00 AM
Fri, Oct 23
3:00 AM
Fri, Oct 23
4:00 AM
Fri, Oct 23
5:00 AM
Fri, Oct 23
6:00 AM
Fri, Oct 23
7:00 AM
Fri, Oct 23
8:00 AM
Fri, Oct 23
9:00 AM
Fri, Oct 23
10:00 AM
Fri, Oct 23
11:00 AM
Fri, Oct 23
12:00 PM
Fri, Oct 23
1:00 PM
Fri, Oct 23
2:00 PM
Fri, Oct 23
3:00 PM
Fri, Oct 23
4:00 PM
Fri, Oct 23
5:00 PM
Fri, Oct 23
6:00 PM
Fri, Oct 23
7:00 PM
Fri, Oct 23
8:00 PM
Fri, Oct 23
9:00 PM
Fri, Oct 23
10:00 PM
Fri, Oct 23
11:00 PM
Sat, Oct 24
12:00 AM
Sat, Oct 24
1:00 AM
Sat, Oct 24
2:00 AM
Sat, Oct 24
3:00 AM
Condition
Clear

Clear

Clear

Clear

Clear

Clear

Clear

Clear

Clear

Clear

Clear

Rain

Rain

Clouds

Clouds

Rain

Clouds

Clear

Clear

Clear

Clear

Clear

Clear

Clear

Clear

Clear

Clear

Clear

Clouds

Clouds

Clouds

Clouds

Clouds

Clouds

Clouds

Clear

Clear

Clouds

Clouds

Clouds

Clouds

Clouds

Clouds

Clouds

Clouds

Clouds

Clouds

Clear
Temperature 59°F61°F61°F61°F62°F66°F72°F76°F80°F81°F81°F79°F78°F77°F73°F70°F68°F66°F65°F64°F63°F62°F61°F61°F60°F59°F59°F58°F59°F63°F68°F73°F77°F79°F80°F80°F78°F76°F72°F67°F66°F65°F65°F64°F63°F63°F62°F62°F
Feels Like 62°F63°F64°F64°F64°F70°F76°F81°F84°F84°F83°F80°F80°F79°F76°F72°F70°F68°F66°F65°F64°F63°F63°F62°F61°F60°F60°F60°F61°F65°F71°F75°F80°F81°F81°F80°F78°F76°F73°F68°F66°F66°F65°F65°F64°F64°F63°F62°F
Cloudiness 1%1%0%0%0%0%0%0%0%1%3%58%47%49%46%49%47%5%7%6%5%4%5%5%3%2%3%10%25%94%93%90%88%86%79%1%4%21%29%28%38%76%69%48%36%33%27%0%
Visibility 6 mi6 mi6 mi6 mi6 mi6 mi6 mi6 mi6 mi6 mi6 mi6 mi6 mi6 mi6 mi6 mi6 mi6 mi6 mi6 mi6 mi6 mi6 mi6 mi6 mi6 mi6 mi6 mi6 mi6 mi6 mi6 mi6 mi6 mi6 mi6 mi6 mi6 mi6 mi6 mi6 mi6 mi6 mi6 mi6 mi6 mi6 mi6 mi
Precipitation 0%0%0%0%0%0%0%0%0%0%0%35%39%39%32%33%5%0%0%0%0%0%0%0%0%0%0%0%0%0%0%0%0%0%0%0%0%0%0%0%0%0%0%0%0%0%0%0%
Humidity 97%95%94%94%94%88%76%66%58%53%52%57%58%62%72%78%81%85%87%88%88%89%89%89%91%92%93%93%93%87%76%67%58%52%47%45%46%51%65%73%76%78%80%83%87%89%90%92%
Dew Point 58°F59°F59°F60°F60°F62°F64°F64°F64°F63°F62°F62°F62°F63°F64°F63°F62°F62°F61°F61°F60°F59°F58°F58°F57°F57°F57°F57°F57°F59°F61°F61°F61°F60°F59°F57°F56°F57°F59°F59°F58°F58°F58°F59°F59°F59°F59°F59°F
Pressure 30.15"30.18"30.21"30.24"30.24"30.24"30.27"30.24"30.24"30.21"30.21"30.18"30.15"30.15"30.15"30.15"30.18"30.21"30.21"30.21"30.21"30.18"30.18"30.18"30.18"30.18"30.18"30.18"30.18"30.21"30.21"30.18"30.15"30.12"30.09"30.09"30.06"30.06"30.03"30.06"30.06"30.09"30.09"30.09"30.09"30.06"30.06"30.06"
Wind Speed 0.3 mph0.5 mph1 mph0.7 mph1.2 mph1.1 mph1.5 mph1.4 mph1.8 mph2.5 mph3.2 mph4.4 mph4.5 mph4.2 mph3.9 mph4.2 mph4 mph4.1 mph4.1 mph3.8 mph3.2 mph2.5 mph1.8 mph1.5 mph1.6 mph1.6 mph0.8 mph0.9 mph0.8 mph1.4 mph1.7 mph2.1 mph1.7 mph1.8 mph2 mph2.6 mph3 mph3.7 mph3.5 mph3.9 mph3.7 mph3.8 mph3.7 mph3.9 mph4 mph3.8 mph4.3 mph4.5 mph
Wind
Direction
290°
WNW
332°
NNW
324°
NW
328°
NNW
337°
NNW
14°
NNE
46°
NE
58°
ENE
86°
E
116°
ESE
123°
ESE
124°
SE
127°
SE
126°
SE
124°
SE
129°
SE
131°
SE
135°
SE
143°
SE
140°
SE
151°
SSE
166°
SSE
174°
S
154°
SSE
153°
SSE
171°
S
219°
SW
293°
WNW
340°
NNW
46°
NE
87°
E
86°
E
123°
ESE
173°
S
194°
SSW
197°
SSW
191°
S
199°
SSW
192°
SSW
185°
S
188°
S
196°
SSW
199°
SSW
199°
SSW
222°
SW
215°
SW
229°
SW
221°
SW

Daily Forecast

Date High Low Precip. Humidity
Today
Oct 22

Rain
81 °F
59 °F
39%
52%
Friday
Oct 23

Clouds
80 °F
59 °F
0%
47%
Saturday
Oct 24

Rain
79 °F
61 °F
100%
55%
Sunday
Oct 25

Rain
65 °F
51 °F
100%
94%
Monday
Oct 26

Clouds
72 °F
52 °F
0%
64%
Tuesday
Oct 27

Clouds
78 °F
59 °F
6%
60%
Wednesday
Oct 28

Rain
80 °F
64 °F
66%
62%
Thursday
Oct 29

Rain
73 °F
66 °F
100%
84%
Friday
Oct 30

Rain
68 °F
50 °F
100%
95%
Saturday
Oct 31

Rain
65 °F
50 °F
88%
60%
Sunday
Nov 1

Clouds
54 °F
45 °F
0%
63%
Monday
Nov 2

Clear
61 °F
41 °F
0%
55%
Tuesday
Nov 3

Clear
60 °F
40 °F
0%
56%
Wednesday
Nov 4

Clear
56 °F
38 °F
0%
50%
Thursday
Nov 5

Clear
65 °F
40 °F
0%
49%
Friday
Nov 6

Clear
69 °F
47 °F
0%
40%


Temperature 8-14 Day Outlook



Precipitation 8-14 Day Outlook




Quick Links
Belews Lake News
Belews Lake Photos
Belews Lake Videos




About Us
Contact Us
Site Map
Search Site
Advertise With Us
   
Belews.LakesOnline.com
THE BELEWS LAKE WEBSITE

Copyright 2020, Lakes Online
Privacy    |    Legal